[[{"header":{"parameterUnit":"m.s-1","parameterCategory":1,"la1":30.2991,"la2":30.254,"lo1":-89.0895,"lo2":-89.0444,"dy":0.0017,"dx":0.0017,"nx":28,"ny":28,"refTime":"2023-09-07T09:00:00:Z","depth":0,"parameterNumber":2,"parameterNumberName":"U-component_of_WINDS"},"data":[0,0,0,0,0,0,0,0,0,0,0,0,0,0,0,0,0,0,0,0,0,0,0,0,0,0,0,0,0,0,0,0,0,0,0,0,0,0,0,0,0,0,0,0,0,0,0,0,0,0,0,0,0,0,0,0,0,0,-2.9236,-2.9237,0,-2.9262,-2.9262,-2.9262,-2.9167,-2.9165,-2.9162,-2.9159,-2.9188,-2.9191,-2.9195,0,0,0,0,0,0,0,0,0,0,0,0,0,-2.9107,-2.911,-2.9236,-2.9237,-2.9237,-2.9262,-2.9262,-2.9262,-2.9168,-2.9164,-2.9161,-2.9158,-2.9187,-2.9191,-2.9195,0,0,0,0,0,0,0,0,0,0,0,0,0,-2.9151,-2.9111,-2.9236,-2.9193,-2.9189,-2.9261,-2.9262,-2.9262,-2.9169,-2.9164,-2.916,-2.9156,-2.9185,-2.919,-2.9195,-2.9312,0,0,-2.9211,-2.9213,0,0,0,0,0,0,0,0,-2.9149,-2.9156,-2.9199,-2.9196,-2.9192,-2.9207,-2.9227,-2.9279,-2.917,-2.9177,-2.9159,-2.9154,-2.9198,-2.9202,-2.9216,-2.9313,-2.9314,-2.9211,-2.9215,-2.9217,-2.9218,0,0,0,0,0,0,0,-2.9146,-2.9154,-2.9246,-2.92,-2.9195,-2.9172,-2.9174,-2.9236,-2.9211,-2.9176,-2.9169,-2.9173,-2.9195,-2.9211,-2.9216,-2.9315,-2.9211,-2.9216,-2.9219,-2.9221,-2.9505,-2.9509,0,0,0,0,0,0,-2.9148,-2.9152,-2.9245,-2.9247,-2.9159,-2.9178,-2.918,-2.9206,-2.921,-2.9206,-2.9176,-2.9168,-2.9204,-2.921,-2.9216,-2.935,-2.9217,-2.9221,-2.9224,-2.9501,-2.9506,-2.9511,0,0,0,0,0,0,-2.9146,-2.9157,-2.9244,-2.9198,-2.9207,-2.9185,-2.9215,-2.9209,-2.9225,-2.921,-2.9206,-2.9197,-2.9201,-2.9209,-2.9288,-2.935,-2.9224,-2.9228,-2.9495,-2.9502,-2.9509,-2.962,0,0,0,0,0,0,-2.9143,-2.9157,-2.9201,-2.92,-2.921,-2.9316,-2.9219,-2.9213,-2.9234,-2.9223,-2.9229,-2.9226,-2.9199,-2.9281,-2.9293,-2.9354,-2.9232,-2.949,-2.9499,-2.9507,-2.9611,-2.963,-2.9646,0,0,0,0,0,-2.9138,-2.9233,-2.9204,-2.9216,-2.9264,-2.9319,-2.9325,-2.9292,-2.9239,-2.9283,-2.9273,-2.9225,-2.9341,-2.929,-2.9302,-2.9367,-2.9486,-2.9496,-2.9506,-2.9603,-2.9626,-2.9646,0,0,0,0,0,0,-2.9244,-2.9232,-2.92,-2.9297,-2.9309,-2.9303,-2.9357,-2.9318,-2.9347,-2.9336,-2.9294,-2.9296,-2.9381,-2.9382,-2.9324,-2.9478,-2.9404,-2.9418,-2.9474,-2.9496,-2.9513,-2.951,-2.9237,0,0,0,0,0,-2.9279,-2.9324,-2.9311,-2.9398,-2.9406,-2.9381,-2.9403,-2.9376,-2.9388,-2.9393,-2.9389,-2.9404,-2.9442,-2.947,-2.9505,-2.9611,-2.9609,-2.9661,-2.9679,-2.9693,-2.9705,-2.9757,-2.9779,-2.9544,-2.9544,-2.9544,0,0,-2.9351,-2.935,-2.9381,-2.9419,-2.9425,-2.9473,-2.9386,-2.9441,-2.9475,-2.9402,-2.9474,-2.9473,-2.9485,-2.9577,-2.9617,-2.958,-2.9769,-2.9706,-2.9718,-2.9721,-2.977,-2.9792,-2.9812,-2.9551,-2.955,-2.9549,0,0,-2.9505,-2.951,-2.9581,-2.9589,-2.9599,-2.9582,-2.9599,-2.9598,-2.9593,-2.9665,-2.961,-2.9651,-2.9721,-2.9731,-2.9745,-2.9901,-2.9857,-2.9914,-3.0006,-3.0058,-3.0076,-3.0093,-3.0145,-3.0165,-2.9926,-2.9926,-2.9927,0,-2.9594,-2.9662,-2.9623,-2.968,-2.9697,-2.9632,-2.9702,-2.9713,-2.9735,-2.9749,-2.9707,-2.979,-2.9794,-2.9886,-2.9923,-2.9939,-2.9955,-2.9913,-3.0077,-3.0093,-3.0107,-3.0157,-3.0177,-2.9933,-2.9932,-2.9932,-2.9931,0,-2.9768,-2.9816,-2.9873,-2.9893,-2.9917,-2.9981,-2.9952,-2.9981,-2.9951,-2.9938,-3.0011,-3.0014,-3.0047,-3.0067,-3.004,-3.0154,-3.013,-3.0084,-3.0009,-3.0137,-3.0183,-3.0202,-2.9942,-2.994,-2.9938,-2.9936,0,0,-2.9991,-2.9987,-3.0008,-3.0015,-3.0021,-3.0057,-3.0118,-3.0149,-3.0173,-3.0191,-3.0239,-3.0298,-3.0254,-3.027,-3.0244,-3.029,-3.0409,-3.0236,-3.0236,-3.0266,-3.0532,-3.0565,-3.0588,-3.0381,-3.0384,-3.0387,-3.053,0,-3.014,-3.0241,-3.0207,-3.031,-3.0352,-3.029,-3.0342,-3.0351,-3.034,-3.0375,-3.0363,-3.0404,-3.0345,-3.0353,-3.0396,-3.0386,-3.0461,-3.0375,-3.0424,-3.0426,-3.042,-3.0612,-3.0648,-3.0782,-3.0548,-3.0551,-3.0553,0,-3.0327,-3.0349,-3.0456,-3.0451,-3.0468,-3.0515,-3.0539,-3.0574,-3.0582,-3.0571,-3.0588,-3.0551,-3.0609,-3.0536,-3.0614,-3.0556,-3.0574,-3.0572,-3.0576,-3.0578,-3.0496,-3.0616,-3.0825,-3.0844,-3.0582,-3.0579,-3.0577,0,-3.0474,-3.0532,-3.0601,-3.061,-3.0607,-3.0642,-3.0642,-3.0647,-3.0667,-3.0688,-3.07,-3.073,-3.0745,-3.0768,-3.0739,-3.0689,-3.0821,-3.0746,-3.0812,-3.0813,-3.0841,-3.0839,-3.1053,-3.0858,-3.0858,-3.0857,-3.0857,0,-3.0643,-3.071,-3.0667,-3.071,-3.0782,-3.0743,-3.0816,-3.081,-3.0814,-3.0854,-3.0804,-3.0843,-3.0803,-3.0839,-3.0817,-3.0884,-3.0892,-3.0883,-3.0876,-3.0886,-3.0887,-3.0896,-3.0885,-3.0863,-3.0861,-3.086,-3.086,0,-3.0819,-3.0793,-3.0865,-3.0856,-3.0855,-3.0909,-3.09,-3.094,-3.0925,-3.0976,-3.0986,-3.0963,-3.1001,-3.0975,-3.1015,-3.1,-3.1086,-3.1068,-3.1083,-3.1077,-3.1143,-3.1135,-3.1367,-3.1394,-3.1185,-3.1187,-3.1189,0,-3.0927,-3.0976,-3.0971,-3.0994,-3.0997,-3.1035,-3.1054,-3.1017,-3.1038,-3.1051,-3.1088,-3.1122,-3.1147,-3.1212,-3.1198,-3.1228,-3.1207,-3.1287,-3.1212,-3.1219,-3.1205,-3.1201,-3.1204,-3.1301,-3.1304,-3.1306,-3.1307,0,-3.112,-3.1104,-3.1132,-3.1156,-3.118,-3.1198,-3.1211,-3.1233,-3.1195,-3.1222,-3.126,-3.1279,-3.1318,-3.1352,-3.1376,-3.1376,-3.1335,-3.1331,-3.1347,-3.1356,-3.1361,-3.1356,-3.1121,-3.1326,-3.1324,-3.1322,-3.1321,-3.1321,-3.1263,-3.1302,-3.1304,-3.1337,-3.1343,-3.1356,-3.1391,-3.1379,-3.1409,-3.1437,-3.1414,-3.1458,-3.1463,-3.1491,-3.1497,-3.1531,-3.1498,-3.1523,-3.1528,-3.1534,-3.1542,-3.1359,-3.1536,-3.1535,-3.1535,-3.1534,-3.1534,0,-3.145,-3.1447,-3.1478,-3.1497,-3.1522,-3.1481,-3.1493,-3.1517,-3.1556,-3.1564,-3.1589,-3.1631,-3.1663,-3.1652,-3.168,-3.1709,-3.1691,-3.1718,-3.1713,-3.1714,-3.1571,-3.1552,-3.1732,-3.1732,-3.1732,-3.1732,-3.1732,-3.1732,-3.155,-3.1613,-3.1597,-3.1663,-3.166,-3.1701,-3.1712,-3.1723,-3.1729,-3.1777,-3.1803,-3.1795,-3.1794,-3.1822,-3.1849,-3.1844,-3.1856,-3.1889,-3.1878,-3.1744,-3.1724,-3.1705,-3.1688,-3.1892,-3.1893,-3.2017,-3.2018,-3.2019]},{"header":{"parameterUnit":"m.s-1","parameterCategory":1,"la1":30.2991,"la2":30.254,"lo1":-89.0895,"lo2":-89.0444,"dy":0.0017,"dx":0.0017,"nx":28,"ny":28,"refTime":"2023-09-07T09:00:00:Z","depth":0,"parameterNumber":3,"parameterNumberName":"V-component_of_WINDS"},"data":[0,0,0,0,0,0,0,0,0,0,0,0,0,0,0,0,0,0,0,0,0,0,0,0,0,0,0,0,0,0,0,0,0,0,0,0,0,0,0,0,0,0,0,0,0,0,0,0,0,0,0,0,0,0,0,0,0,0,-3.5273,-3.5272,0,-3.5254,-3.5253,-3.5253,-3.5199,-3.5198,-3.5197,-3.5196,-3.5174,-3.5175,-3.5175,0,0,0,0,0,0,0,0,0,0,0,0,0,-3.5258,-3.5259,-3.5273,-3.5272,-3.5272,-3.5254,-3.5253,-3.5253,-3.52,-3.5198,-3.5197,-3.5195,-3.5174,-3.5175,-3.5175,0,0,0,0,0,0,0,0,0,0,0,0,0,-3.5254,-3.5259,-3.5273,-3.5243,-3.524,-3.5254,-3.5253,-3.5253,-3.52,-3.5198,-3.5196,-3.5195,-3.5174,-3.5175,-3.5175,-3.5215,0,0,-3.5178,-3.5178,0,0,0,0,0,0,0,0,-3.5255,-3.5255,-3.5248,-3.5245,-3.5242,-3.5227,-3.524,-3.524,-3.52,-3.5215,-3.5196,-3.5194,-3.5193,-3.5192,-3.5192,-3.5214,-3.5213,-3.5178,-3.5178,-3.5179,-3.5179,0,0,0,0,0,0,0,-3.5255,-3.5256,-3.5265,-3.5248,-3.5244,-3.523,-3.5227,-3.524,-3.5214,-3.5214,-3.521,-3.5208,-3.5191,-3.5192,-3.5192,-3.5213,-3.5178,-3.5179,-3.5179,-3.5179,-3.5261,-3.5263,0,0,0,0,0,0,-3.526,-3.5256,-3.5266,-3.5264,-3.5244,-3.5231,-3.5229,-3.5234,-3.5214,-3.5209,-3.521,-3.5206,-3.5191,-3.5191,-3.5191,-3.5233,-3.5179,-3.5179,-3.518,-3.526,-3.5262,-3.5264,0,0,0,0,0,0,-3.526,-3.5261,-3.5266,-3.5259,-3.5259,-3.5233,-3.524,-3.5234,-3.5235,-3.5211,-3.5206,-3.5216,-3.519,-3.5189,-3.5209,-3.5231,-3.518,-3.518,-3.5258,-3.526,-3.5263,-3.5319,0,0,0,0,0,0,-3.526,-3.5262,-3.5278,-3.526,-3.5259,-3.5286,-3.5241,-3.5235,-3.5236,-3.5231,-3.5215,-3.521,-3.5189,-3.5208,-3.5209,-3.5231,-3.5181,-3.5255,-3.5259,-3.5262,-3.5315,-3.5323,-3.533,0,0,0,0,0,-3.5259,-3.5295,-3.5279,-3.528,-3.5279,-3.5288,-3.5287,-3.5262,-3.5239,-3.5253,-3.5237,-3.5211,-3.5229,-3.521,-3.5211,-3.5234,-3.5254,-3.5258,-3.5262,-3.5312,-3.5322,-3.533,0,0,0,0,0,0,-3.5316,-3.5292,-3.5274,-3.5305,-3.5299,-3.5279,-3.5297,-3.5274,-3.5274,-3.5269,-3.5237,-3.5233,-3.5256,-3.5247,-3.5227,-3.5269,-3.5237,-3.5241,-3.5274,-3.5283,-3.5291,-3.5292,-3.5182,0,0,0,0,0,-3.5332,-3.5342,-3.532,-3.5349,-3.5347,-3.5323,-3.5326,-3.5306,-3.5298,-3.5295,-3.5281,-3.5274,-3.5277,-3.528,-3.5282,-3.5314,-3.5307,-3.533,-3.5337,-3.5344,-3.5347,-3.5359,-3.5368,-3.5276,-3.5276,-3.5276,0,0,-3.5365,-3.5353,-3.5362,-3.536,-3.5353,-3.5363,-3.5321,-3.5334,-3.5339,-3.5297,-3.5313,-3.5303,-3.5292,-3.5316,-3.5327,-3.531,-3.5371,-3.5349,-3.5354,-3.5354,-3.5364,-3.5373,-3.5381,-3.5279,-3.5279,-3.5278,0,0,-3.543,-3.5423,-3.5445,-3.5439,-3.5428,-3.5411,-3.5416,-3.5399,-3.539,-3.5406,-3.5374,-3.538,-3.5388,-3.538,-3.5377,-3.5436,-3.541,-3.5438,-3.5477,-3.5489,-3.5497,-3.5503,-3.5521,-3.5528,-3.5442,-3.5442,-3.5442,0,-3.5472,-3.5486,-3.5459,-3.5473,-3.5472,-3.5434,-3.5454,-3.5449,-3.544,-3.5439,-3.5421,-3.5427,-3.5418,-3.5438,-3.5452,-3.5452,-3.5455,-3.5439,-3.5498,-3.5504,-3.5509,-3.5526,-3.5533,-3.5445,-3.5445,-3.5444,-3.5444,0,-3.5537,-3.5547,-3.5566,-3.5557,-3.5558,-3.5576,-3.5549,-3.5554,-3.5534,-3.5518,-3.5533,-3.552,-3.5517,-3.5521,-3.5502,-3.5538,-3.5527,-3.5504,-3.547,-3.5521,-3.5536,-3.5543,-3.545,-3.5448,-3.5448,-3.5447,0,0,-3.5637,-3.5612,-3.5619,-3.5613,-3.5598,-3.5604,-3.5618,-3.5616,-3.5619,-3.5613,-3.5622,-3.5628,-3.5606,-3.5602,-3.5582,-3.5594,-3.5637,-3.5568,-3.5567,-3.5579,-3.5671,-3.5687,-3.5695,-3.562,-3.5621,-3.5622,-3.5671,0,-3.5696,-3.572,-3.5694,-3.5722,-3.5729,-3.5692,-3.5704,-3.5695,-3.568,-3.5682,-3.5666,-3.5669,-3.5641,-3.5638,-3.5648,-3.563,-3.5654,-3.5626,-3.5626,-3.5626,-3.5628,-3.5704,-3.5722,-3.5768,-3.5677,-3.5678,-3.5679,0,-3.5768,-3.5765,-3.5794,-3.5773,-3.5775,-3.5787,-3.578,-3.5784,-3.5772,-3.576,-3.5755,-3.573,-3.574,-3.5709,-3.572,-3.5702,-3.57,-3.5691,-3.5692,-3.5689,-3.5655,-3.5701,-3.5783,-3.5789,-3.5689,-3.5688,-3.5687,0,-3.5835,-3.5838,-3.5854,-3.5851,-3.5829,-3.5837,-3.5828,-3.5814,-3.5813,-3.5807,-3.5805,-3.5801,-3.5798,-3.5794,-3.5768,-3.5748,-3.5782,-3.5749,-3.577,-3.577,-3.5777,-3.5777,-3.5858,-3.578,-3.578,-3.578,-3.578,0,-3.5902,-3.592,-3.5883,-3.5893,-3.5912,-3.5882,-3.59,-3.5887,-3.5874,-3.588,-3.5848,-3.5853,-3.5819,-3.582,-3.5799,-3.581,-3.581,-3.5799,-3.5792,-3.58,-3.5801,-3.5797,-3.5793,-3.5782,-3.5782,-3.5781,-3.5781,0,-3.5979,-3.5956,-3.597,-3.5948,-3.5942,-3.5956,-3.5936,-3.5943,-3.5925,-3.5932,-3.5932,-3.5904,-3.5903,-3.5877,-3.5871,-3.5857,-3.5875,-3.5864,-3.5879,-3.5875,-3.5896,-3.5893,-3.5976,-3.5984,-3.5904,-3.5904,-3.5905,0,-3.6022,-3.6035,-3.6013,-3.6014,-3.6007,-3.601,-3.6008,-3.5978,-3.5977,-3.5963,-3.5971,-3.5967,-3.5963,-3.5963,-3.5941,-3.5935,-3.5922,-3.5951,-3.5921,-3.5927,-3.5919,-3.5917,-3.5917,-3.5957,-3.5958,-3.5959,-3.596,0,-3.61,-3.6087,-3.6087,-3.6081,-3.608,-3.6074,-3.6066,-3.6069,-3.6036,-3.6037,-3.6035,-3.6032,-3.6024,-3.602,-3.601,-3.5998,-3.5972,-3.5969,-3.5973,-3.598,-3.5987,-3.5981,-3.5894,-3.5967,-3.5967,-3.5966,-3.5966,-3.5965,-3.616,-3.6168,-3.6153,-3.6153,-3.6143,-3.6136,-3.6141,-3.6123,-3.6122,-3.6114,-3.6096,-3.6097,-3.6081,-3.6064,-3.6055,-3.6053,-3.6038,-3.6045,-3.6046,-3.6048,-3.6051,-3.599,-3.6052,-3.6052,-3.6051,-3.6051,-3.6051,0,-3.6234,-3.6222,-3.6222,-3.6211,-3.621,-3.6187,-3.6176,-3.6176,-3.6177,-3.6165,-3.616,-3.6157,-3.6152,-3.613,-3.6122,-3.6125,-3.6112,-3.6123,-3.6121,-3.6119,-3.6066,-3.6062,-3.6133,-3.6133,-3.6133,-3.6133,-3.6133,-3.6133,-3.6272,-3.6284,-3.6269,-3.6275,-3.6263,-3.6263,-3.6259,-3.6251,-3.624,-3.6238,-3.6234,-3.6219,-3.6202,-3.6192,-3.6186,-3.6179,-3.6176,-3.6191,-3.618,-3.6131,-3.6123,-3.6115,-3.6111,-3.6191,-3.6191,-3.6231,-3.6232,-3.6232]}]]